Regional Weather Roundup
Issued by NWS

Home | Current Version | Previous Version | Text Only | Print | Product List | Glossary On
Versions: 1 2 3 4 5 6 7 8 9 10 11 12 13 14 15 16 17 18 19 20 21 22 23 24 25 26 27 28 29 30 31 32 33 34 35 36 37 38 39 40 41 42 43 44 45 46 47 48 49 50
000
ASUS45 KBOU 261207
RWRCO

WEATHER ROUNDUP FOR COLORADO
NATIONAL WEATHER SERVICE DENVER/BOULDER CO
600 AM MDT THU MAR 26 2015

NOTE: "FAIR" INDICATES FEW OR NO CLOUDS BELOW 12000 FEET WITH NO
SIGNIFICANT WEATHER AND/OR OBSTRUCTIONS TO VISIBILITY.

COZ001>005-013-030-031-261300-
...NORTHWEST COLORADO...

CITY           SKY/WX    TMP DP  RH WIND       PRES   REMARKS
CRAIG          PTCLDY    21  17  84 SE3       30.39R
HAYDEN         PTCLDY    25  18  74 CALM      30.37R
MEEKER         CLEAR     24  18  77 CALM      30.38R
MOUNT WERNER   NOT AVBL
STEAMBOAT SPGS PTCLDY    19  18  93 W3        30.38R
WALDEN         PTCLDY    18  12  79 SE6       30.31R WCI   9
$$

COZ006>008-011-261300-
...WEST CENTRAL VALLEYS...

CITY           SKY/WX    TMP DP  RH WIND       PRES   REMARKS
GRAND JUNCTION CLEAR     29  17  61 SE6       30.34R WCI  23
MONTROSE       CLEAR     27  17  66 S7        30.37S WCI  19
EAGLE          CLEAR     21  18  86 CALM      30.41R
RIFLE          CLEAR     23  16  74 S3        30.38R
DELTA          CLEAR     30  16  57 NE5       30.36S WCI  25
NUCLA          CLEAR     30  14  51 SE5       30.37S WCI  25
$$

COZ017>023-064>068-261300-
...SOUTHWEST COLORADO...

CITY           SKY/WX    TMP DP  RH WIND       PRES   REMARKS
DURANGO        PTCLDY    24  12  60 CALM      30.28R
CORTEZ         CLEAR     23  12  62 NE8       30.30S WCI  14
PAGOSA SPRINGS PTCLDY    25  10  54 CALM      30.30R
TELLURIDE      PTCLDY    24  11  59 SE6       30.36F WCI  17
WOLF CREEK PAS PTCLDY    18   1  49 NE13G22   30.34S WCI   4
$$

COZ009-010-012-014-032>034-037-058>063-261300-
...CENTRAL COLORADO...

CITY           SKY/WX    TMP DP  RH WIND       PRES   REMARKS
ASPEN          PTCLDY    20  13  74 SW6       30.35S WCI  12
BUENA VISTA    CLEAR     31  10  40 NW21G32   30.26S WCI  19
COPPER MTN     PTCLDY    14   9  79 W20       30.30R WCI  -3
BERTHOUD PASS  LGT SNOW   7   0  72 MISG      30.25R VSB 3/4
COTTONWOOD PAS CLEAR     28   9  43 CALM      30.26R
GUNNISON       PTCLDY    19  12  73 CALM      30.37R
KREMMLING      PTCLDY    21  16  79 E3        30.37R
LEADVILLE      PTCLDY    11   6  81 N8        30.30S WCI  -1
SALIDA         CLEAR     24  15  67 NW3       30.35R
SUNLIGHT       CLEAR     21  14  73 NW3       30.38S
WILKERSON PASS PTCLDY    18   9  68 N12       30.25R WCI   5
$$

COZ069>075-261300-
...SAN LUIS VALLEY/SANGRE DE CRISTO MOUNTAINS...

CITY           SKY/WX    TMP DP  RH WIND       PRES   REMARKS
ALAMOSA        MOCLDY    16  11  80 SW6       30.30R WCI   7
LA VETA PASS   PTCLDY    18  10  73 MISG      30.25S
SAGUACHE       PTCLDY    27  10  50 N10       30.29F WCI  17
$$

COZ035-036-038>040-261300-
...NORTHERN COLORADO FRONT RANGE...

CITY           SKY/WX    TMP DP  RH WIND       PRES   REMARKS
DENVER INTL AP PTCLDY    32  22  66 SW9       30.19R WCI  24
DMNS CITY PARK   N/A     32  21  64 S5        30.20R WCI  27
AURORA         PTCLDY    31  19  62 SW8       30.20R WCI  24
FRONT RANGE AP CLEAR     34  23  64 W7        30.20R WCI  28
ERIE MUNI ARPT PTCLDY    26  25  96 CALM      30.20R
BOULDER MUN AP PTCLDY    32  30  93 CALM      30.19R
CENTENNIAL     CLEAR     32  17  54 W9        30.19R WCI  24
BROOMFIELD     PTCLDY    34  23  64 NW8       30.19R WCI  27
FORT COLLINS   CLOUDY    27  25  93 CALM      30.21R VSB<1/4
LONGMONT       CLEAR     26  23  89 SW3       30.22R
$$

COZ041-046-047-076>085-087-088-261300-
...PIKES PEAK/PALMER DIVIDE AND SOUTHERN FOOTHILLS...

CITY           SKY/WX    TMP DP  RH WIND       PRES   REMARKS
COLO. SPRINGS  CLEAR     24  18  77 N7        30.22S WCI  16
A. F. ACADEMY  CLEAR     19  13  79 N7        30.21R WCI  10
ELLICOTT       CLEAR    N/A N/A N/A CALM      30.21S
FALCON         CLEAR     24  15  67 NW9       30.22R WCI  15
FORT CARSON    CLEAR     24  19  82 NW7       30.20S WCI  16
LIMON          CLEAR     20  18  92 N5        30.20S WCI  13
MONUMENT HILL  CLEAR     25  14  63 SW9       30.19R WCI  15
TRINIDAD       CLEAR     26  19  74 SW17      30.26S WCI  13
$$

COZ042>045-048>051-090-091-261300-
...NORTHEAST COLORADO...

CITY           SKY/WX    TMP DP  RH WIND       PRES   REMARKS
GREELEY ARPT   CLOUDY    28  19  69 CALM      30.20R VSB<1/4
AKRON          CLEAR     29  27  92 SW10      30.18R WCI  20
BURLINGTON     CLEAR     29  25  85 W9        30.20S WCI  20
WRAY           CLEAR     30  30 100 W7        30.19S WCI  23
STERLING       CLEAR     27  25  93 S6        30.18S WCI  20
HOLYOKE        CLEAR     28  23  80 W6        30.18S WCI  22
FORT MORGAN    PTCLDY    25  24  96 W6        30.20R WCI  18
$$

COZ086-089-092>099-261300-
...SOUTHEAST COLORADO...

CITY           SKY/WX    TMP DP  RH WIND       PRES   REMARKS
PUEBLO         CLEAR     26  24  92 SW3       30.23F
LA JUNTA       CLEAR     31  26  82 SW13      30.23S WCI  21
LAMAR          CLEAR     29  28  96 SW8       30.22S WCI  21
SPRINGFIELD      N/A     30  27  88 W8        30.23F WCI  22
$$


USA.gov is the U.S. government's official web portal to all federal, state and local government web resources and services.